Location: Spring Creek
(38.2870°N, 100.2160°W)
Time: 15:20:55
(UTC+00:00)

Cosmos 2297 Rocket - Pass Details

Date: 26 September 2021
Orbit: 841 x 842 km, 71.0° (Epoch: 27 October)

Event Time Altitude Azimuth Distance (km) Brightness Sun altitude
Rises 03:38:41 0° 346° (NNW) 3,403 5.9 -35.8°
Reaches altitude 10° 03:41:25 10° 357° (N) 2,465 5.0 -36.2°
Enters shadow 03:42:41 16° 5° (N) 2,067 4.4 -36.4°
